Medford, OR

4:35 AM PST on December 11, 2019 (GMT -0800)
Rogue Valley International-Medford

Weather History for KMFR - July, 2019

Change the Weather History Date:

Sunday, July 21, 2019

  Actual Average Record
Temperature  
Mean Temperature 77 °F 75 °F  
Max Temperature 95 °F 92 °F 109 °F (1994)
Min Temperature 58 °F 58 °F 43 °F (1914)
Degree Days  
Heating Degree Days 0 0  
Month to date heating degree days 0 1  
Since 1 June heating degree days 31 55  
Since 1 July heating degree days 0 1  
Cooling Degree Days 12 10  
Month to date cooling degree days 172 179  
Year to date cooling degree days 366 325  
Since 1 June cooling degree days 334 287  
Growing Degree Days 27 (Base 50)    
Moisture  
Dew Point 45 °F    
Average Humidity 37    
Maximum Humidity 56    
Minimum Humidity 17    
Precipitation  
Precipitation 0.00 in 0.01 in 0.56 in (1987)
Month to date precipitation T 0.20  
Year to date precipitation 13.86 9.66  
Snow  
Snow 0.00 in 0.00 in - ()
Month to date snowfall 0.0 0.0  
Since 1 July snowfall 0.0 0.0  
Snow Depth 0.00 in    
Sea Level Pressure  
Sea Level Pressure 29.90 in    
Wind  
Wind Speed 5 mph (NNW)    
Max Wind Speed 17 mph    
Max Gust Speed 22 mph    
Visibility 10 miles    
Events      
T = Trace of Precipitation, MM = Missing Value Source: NWS Daily Summary

Daily Weather History Graph

Daily Weather History Graph

Search for Another Location

Airport or City:

Astronomy

Jul. 21, 2019 Rise Set
Actual Time 5:53 AM PDT 8:42 PM PDT
Civil Twilight 5:20 AM PDT 9:15 PM PDT
Nautical Twilight 4:38 AM PDT 9:56 PM PDT
Astronomical Twilight 3:50 AM PDT 10:44 PM PDT
Moon 11:34 PM PDT (7/21) 10:23 AM PDT (7/21)
Length of Visible Light 15h 54m
Length of Day
14h 48m
Waning Gibbous, 79% of the Moon is Illuminated
Jul 21
Waning Gibbous
Jul 24
Last Quarter
Jul 31
New
Aug 7
First Quarter
Aug 15
Full

Hourly Weather History & Observations

Time (PDT) Temp. Dew Point Humidity Pressure Visibility Wind Dir Wind Speed Gust Speed Precip Events Conditions
12:53 AM 70.0 °F 43.0 °F 38% 29.91 in 10.0 mi Calm Calm - N/A   Clear
1:53 AM 68.0 °F 44.1 °F 42% 29.91 in 10.0 mi Calm Calm - N/A   Clear
2:53 AM 64.9 °F 45.0 °F 48% 29.91 in 10.0 mi Calm Calm - N/A   Clear
3:53 AM 61.0 °F 45.0 °F 56% 29.91 in 10.0 mi ENE 3.5 mph - N/A   Clear
4:53 AM 61.0 °F 45.0 °F 56% 29.93 in 10.0 mi Calm Calm - N/A   Clear
5:53 AM 60.1 °F 44.1 °F 55% 29.94 in 10.0 mi Calm Calm - N/A   Clear
6:53 AM 62.1 °F 46.0 °F 56% 29.96 in 10.0 mi Calm Calm - N/A   Clear
7:53 AM 64.9 °F 46.0 °F 50% 29.97 in 10.0 mi Calm Calm - N/A   Clear
8:53 AM 68.0 °F 46.0 °F 45% 29.97 in 10.0 mi ENE 3.5 mph - N/A   Clear
9:53 AM 72.0 °F 46.0 °F 40% 29.96 in 10.0 mi Calm Calm - N/A   Clear
10:53 AM 75.9 °F 46.9 °F 36% 29.94 in 10.0 mi Calm Calm - N/A   Clear
11:53 AM 81.0 °F 42.1 °F 25% 29.91 in 10.0 mi Variable 3.5 mph - N/A   Clear
12:53 PM 86.0 °F 42.1 °F 21% 29.89 in 10.0 mi Variable 3.5 mph - N/A   Clear
1:53 PM 87.1 °F 43.0 °F 21% 29.87 in 10.0 mi Calm Calm - N/A   Clear
2:53 PM 91.9 °F 43.0 °F 18% 29.86 in 10.0 mi West 6.9 mph - N/A   Clear
3:53 PM 91.9 °F 45.0 °F 20% 29.84 in 10.0 mi NW 11.5 mph - N/A   Clear
4:53 PM 93.9 °F 43.0 °F 17% 29.83 in 10.0 mi West 13.8 mph - N/A   Clear
5:53 PM 93.9 °F 44.1 °F 18% 29.81 in 10.0 mi NW 10.4 mph - N/A   Clear
6:53 PM 93.0 °F 45.0 °F 19% 29.81 in 10.0 mi West 10.4 mph - N/A   Clear
7:53 PM 90.0 °F 46.9 °F 23% 29.83 in 10.0 mi North 16.1 mph 21.9 mph N/A   Clear
8:53 PM 84.9 °F 46.9 °F 27% 29.86 in 10.0 mi North 10.4 mph - N/A   Clear
9:53 PM 82.0 °F 48.0 °F 30% 29.89 in 10.0 mi North 8.1 mph - N/A   Clear
10:53 PM 80.1 °F 48.0 °F 32% 29.91 in 10.0 mi NNW 3.5 mph - N/A   Clear
11:53 PM 77.0 °F 48.9 °F 37% 29.91 in 10.0 mi North 8.1 mph - N/A   Clear